Starlink 11575

operational
NORAD ID: 63308 Int'l Des: 2025-057 Owner: SPXS Country: US Constellation: starlink
LEOCIRCULAR

About Starlink 11575

Description loading...

Live Position

Loading 3D Globe...

Upcoming Passes

Altitude History

Altitude vs Time

uPlot chart will show altitude changes over time

Two-Line Element Set

1 63308U 25057B 25352.53559939 .00183388 00000-0 13981-2 0 9999
2 63308 43.0002 33.7517 0001380 263.4170 96.6541 15.70896206 44410
Epoch: Dec 18, 2025 • Age: 19 hours

Current Status

Altitude 355.1 km
Velocity 7.70 km/s
Sub-Earth Point 1.31°N, 0.62°E
Launch Date Mar 18, 2025
Age 0.7 years
Type internet

Technical Details

Classification Payload
Mass 960.00 kg
Dry Mass 910.00 kg
Total Mass 960.00 kg
Length 0.30 m
Diameter 4.10 m
Span 29.00 m
Shape Box + pan
Manufacturer SPXS
Bus Type Starlink V2MD
Phase Status In Orbit
Owner/State SPXS/US

Large Constellations

Loading constellations...